Regional Weather Roundup
Issued by NWS

Home | Current Version | Previous Version | Text Only | Print | Product List | Glossary Off
Versions: 1 2 3 4 5 6 7 8 9 10 11 12 13 14 15 16 17 18 19 20 21 22 23 24 25 26 27 28 29 30 31 32 33 34 35 36 37 38 39 40 41 42 43 44 45 46 47 48 49 50

000
ASUS43 KIND 291409
RWRIN

WEATHER ROUNDUP FOR INDIANA
NATIONAL WEATHER SERVICE INDIANAPOLIS IN
1000 AM EDT THU SEP 29 2016

NOTE: "FAIR" INDICATES FEW OR NO CLOUDS BELOW 12,000 FEET WITH NO
SIGNIFICANT WEATHER AND/OR OBSTRUCTIONS TO VISIBILITY.

* - STATION DOES NOT REPORT WEATHER SUCH AS PRECIPITATION OR FOG.

+ - STATION NOT QUALITY CONTROLLED BY THE NATIONAL WEATHER SERVICE.
    USE DATA WITH CAUTION...ESPECIALLY DEWPOINT AND RELATIVE
    HUMIDITY OBSERVATIONS.

INZ001>003-010>013-019-020-291500-
NORTHWEST INDIANA

CITY           SKY/WX    TMP DP  RH WIND       PRES   REMARKS
GARY /AIRPORT/ RAIN      63  61  94 NE20G32   30.12R
KNOX *+        CLOUDY    59  43  55 NE7       30.09R
LA PORTE +     CLOUDY   N/A N/A N/A NE8       30.12R
MICHIGAN CITY+ CLOUDY    57  57 100 MISG      30.12R
MONTICELLO +   CLOUDY    59  53  83 NE6       30.08R
RENSSELAER +   CLOUDY    59  55  88 NE10      30.11R
VALPARAISO     CLOUDY    59  56  89 NE9       30.12R

$$

LMZ046-743>745-291500-
SOUTHERN LAKE MICHIGAN

STATION/POSITION TIME  TEMP    WIND        PRES    WAVE
                       AIR SEA DIR/SP/G            HT
                 (UTC) (F)     (DEG/KT/KT) (MB)    (FT)
BURNS HARBOR     1340   62      60/ 27/ 32 1019.6R
MICHIGAN CITY    1340   60      30/ 24/ 26   N/A
5NW MICH CITY    1400   61 65   50/ 21/ 27   N/A     7

$$

INZ004-005-014>016-021>024-291500-
NORTH CENTRAL INDIANA

CITY           SKY/WX    TMP DP  RH WIND       PRES   REMARKS
ELKHART        CLOUDY   N/A N/A N/A NE9       30.10R
GOSHEN         CLOUDY    61  56  83 NE9       30.09R
LOGANSPORT +   CLOUDY    55  55 100 N3        30.09R
ROCHESTER +    CLOUDY    61  59  94 N7        30.10R
SOUTH BEND     CLOUDY    58  57  97 N9        30.12R
WARSAW +       CLOUDY    59  52  77 E8        30.09R

$$

INZ006>009-017-018-025>027-291500-
NORTHEAST INDIANA

CITY           SKY/WX    TMP DP  RH WIND       PRES   REMARKS
ANGOLA *+        N/A     59  48  67 NE6       30.08S
AUBURN +       CLOUDY    61  55  82 E6        30.09S
FORT WAYNE     CLOUDY    58  55  90 NE9       30.09R
HUNTINGTON +   CLOUDY    58  56  95 E5        30.09R
KENDALLVILLE + CLOUDY    60  57  91 E7        30.09R

$$

INZ028-029-035-036-043>045-051>053-291500-
WEST CENTRAL INDIANA

CITY           SKY/WX    TMP DP  RH WIND       PRES   REMARKS
CRAWFORDSVL +  CLOUDY    55  55 100 NE5       30.08R
GREENCASTLE +  CLOUDY    55  55 100 N7        30.07S
LAFAYETTE      CLOUDY    57  56  96 NE6       30.09
TERRE HAUTE    CLOUDY    57  53  86 NE9       30.08R

$$

INZ030>032-037>040-046>048-054>057-064-065-291500-
CENTRAL INDIANA

CITY           SKY/WX    TMP DP  RH WIND       PRES   REMARKS
ANDERSON       CLOUDY    55  55 100 N6        30.08R FOG
COLUMBUS       CLOUDY    57  55  94 N5        30.05R
FISHERS *+     MOSUNNY   57  57 100 N5        30.07R
FRANKFORT +    CLOUDY    59  56  91 NE7       30.09R
GREENWOOD *+   CLOUDY    57  55  94 NE5       30.07R
INDIANAPOLIS   PTSUNNY   57  52  83 N8        30.06R
-EAGLE CREEK   MOSUNNY   59  53  80 VRB6      30.06R
KOKOMO *+      CLOUDY    57  55  94 NE10      30.09R
MARION +       CLOUDY    57  54  91 NE7       30.08R FOG
MT COMFORT *+  CLOUDY    55  52  88 NE8       30.07R
SHELBYVILLE    CLOUDY    57  52  83 N7        30.06R
ZIONSVILLE +   CLOUDY    56  52  88 N6        30.08R

$$

INZ033-034-041-042-049-050-058-059-291500-
EAST CENTRAL INDIANA

CITY           SKY/WX    TMP DP  RH WIND       PRES   REMARKS
MUNCIE         CLOUDY    58  55  90 E5        30.07R

$$

INZ060-061-067>069-081>083-085>088-291500-
SOUTHWEST INDIANA

CITY           SKY/WX    TMP DP  RH WIND       PRES   REMARKS
EVANSVILLE     CLOUDY    55  52  89 NW6       30.07R
HUNTINGBURG *+   N/A     54  50  87 CALM      30.06S
WASHINGTON +   CLOUDY    56  56 100 MISG      30.05R

$$

INZ062-063-066-070>080-084-089>092-291500-
SOUTH CENTRAL AND SOUTHEAST INDIANA

CITY           SKY/WX    TMP DP  RH WIND       PRES   REMARKS
BLOOMINGTON    CLOUDY    58  52  80 N7        30.06R
MADISON *+     CLOUDY    55  52  88 CALM      30.07R
NORTH VERNON + CLOUDY   N/A N/A N/A NE3       30.06R
SEYMOUR +      CLOUDY    57  54  88 CALM      30.05R

$$




USA.gov is the U.S. government's official web portal to all federal, state and local government web resources and services.